星链-5560 (STARLINK-5560 )

导读

STARLINK-5560是美国SpaceX公司星链星座的成员卫星,于2023年3月3日发射入轨,属于星链低轨卫星互联网项目组网卫星。该卫星运行在近地轨道,为星链全球网络提供低延迟、高速宽带互联网接入支持,重点服务地面基础设施覆盖不足的偏远区域,也可支撑应急、移动互联网场景,是星链大规模扩展全球卫星互联网服务的组成部分。星链项目虽推动全球互联,但也引发了太空交通安全与天文观测影响争议。

基本信息
目录编号:
55749
目录名称:
STARLINK-5560
国际标识:
2023-028J
轨道中心:
EARTH
卫星名称:
星链-5560
卫星全名:
星链-5560 (STARLINK-5560 )
卫星状态:
已陨落 最后检测时间 2025-07-07
发射日期:
2023-03-03 UTC
国别 :
美国 (US)
星等 :
--
该卫星已列入 空间交会检测服务 Space Conjunction Data Service (SCDS) ,当前飞行风险评估等级: 无高风险
轨道信息
数据来源 国际轨道数据
星历时间: 2025-07-08T05:38:27+0800
轨道信息已过期431天
半长轴: 6506.741km
偏心率: 0.0010466
轨道倾角: 69.969°
近地点辐角 247.320°
升交点赤经 120.201°
平近点角 228.276°
近地点: 121.796km
远地点: 135.416km
周期: 87.057分钟
每日圈数: 16.540837
详细信息
固有亮度:
5
最大亮度:
2.5
卫星平台:
Starlink v1.5
覆盖范围:
全球
运营商:
太空探索技术公司
运营商所在国:
美国
制造商(研发单位):
太空探索技术公司
制造商所在国:
美国
使用方式:
暂无
卫星简介
星链(Starlink)计划是由太空探索技术公司(SpaceX)提出的一个巨型低轨卫星互联网星座项目,计划在2019年至2024年间在太空搭建由约1.2万颗卫星组成的“星链”网络,其中1584颗将部署在地球上空550千米处的近地轨道,并从2020年开始工作。该卫星仍在工作。
与全量物体交会距离演化趋势
与全量物体交会风险概率演化趋势